Weather History for Gadsden, AL

Change the Weather History Date:

Monday, November 19, 2012

  Actual Average Record
Temperature  
Mean Temperature 48 °F -  
Max Temperature 66 °F 60 °F 83 °F (1942)
Min Temperature 30 °F 37 °F 19 °F (2008)
Degree Days  
Heating Degree Days 17    
Moisture  
Dew Point 36 °F    
Average Humidity 72    
Maximum Humidity 93    
Minimum Humidity 37    
Precipitation  
Precipitation 0.00 in - - ()
Sea Level Pressure  
Sea Level Pressure 30.27 in    
Wind  
Wind Speed 0 mph (SE)    
Max Wind Speed 5 mph    
Max Gust Speed -    
Visibility 10 miles    
Events      
Averages and records for this station are not official NWS values.
T = Trace of Precipitation, MM = Missing Value Source: NWS Daily Summary

Daily Weather History Graph

Daily Weather History Graph

Search for Another Location

Airport:

Trip Planner

Search our weather history database for the weather conditions in past years. The results will help you decide how hot, cold, wet, or windy it might be!

Date:

Astronomy

Nov. 19, 2012 Rise Set
Actual Time 6:21 AM CST 4:38 PM CST
Civil Twilight 5:54 AM CST 5:05 PM CST
Nautical Twilight 5:23 AM CST 5:35 PM CST
Astronomical Twilight 4:54 AM CST 6:05 PM CST
Moon 11:29 AM CST (11/19) 10:57 PM CST (11/19)
Length of Visible Light 11h 10m
Length of Day
10h 17m
Waxing Crescent, 41% of the Moon is Illuminated
Nov 19
Waxing Crescent
Nov 20
First Quarter
Nov 28
Full
Dec 6
Last Quarter
Dec 13
New

Hourly Weather History & Observations

Time (CST) Temp. Dew Point Humidity Pressure Visibility Wind Dir Wind Speed Gust Speed Precip Events Conditions
12:15 AM 35.6 °F 33.8 °F 93% 30.33 in 10.0 mi Calm Calm - N/A   Clear
12:35 AM 35.6 °F 33.8 °F 93% 30.32 in 10.0 mi Calm Calm - N/A   Clear
12:55 AM 35.6 °F 33.8 °F 93% 30.32 in 10.0 mi Calm Calm - N/A   Clear
1:15 AM 35.6 °F 30.2 °F 81% 30.32 in 10.0 mi Calm Calm - N/A   Clear
1:35 AM 35.6 °F 33.8 °F 93% 30.32 in 10.0 mi Calm Calm - N/A   Clear
1:55 AM 35.6 °F 33.8 °F 93% 30.33 in 10.0 mi Calm Calm - N/A   Clear
2:15 AM 33.8 °F 30.2 °F 87% 30.33 in 10.0 mi Calm Calm - N/A   Clear
2:35 AM 33.8 °F 30.2 °F 87% 30.32 in 10.0 mi Calm Calm - N/A   Clear
2:55 AM 33.8 °F 30.2 °F 87% 30.31 in 10.0 mi Calm Calm - N/A   Clear
3:15 AM 33.8 °F 30.2 °F 87% 30.32 in 10.0 mi Calm Calm - N/A   Clear
3:35 AM 32.0 °F 28.4 °F 87% 30.32 in 10.0 mi Calm Calm - N/A   Clear
3:55 AM 33.8 °F 30.2 °F 87% 30.31 in 10.0 mi Calm Calm - N/A   Clear
4:15 AM 33.8 °F 30.2 °F 87% 30.31 in 10.0 mi Calm Calm - N/A   Clear
4:35 AM 33.8 °F 30.2 °F 87% 30.31 in 10.0 mi Calm Calm - N/A   Clear
4:55 AM 32.0 °F 30.2 °F 93% 30.32 in 10.0 mi Calm Calm - N/A   Clear
5:15 AM 32.0 °F 28.4 °F 87% 30.32 in 10.0 mi Calm Calm - N/A   Clear
5:35 AM 32.0 °F 30.2 °F 93% 30.31 in 10.0 mi Calm Calm - N/A   Clear
5:55 AM 30.2 °F 28.4 °F 93% 30.32 in 10.0 mi Calm Calm - N/A   Clear
6:15 AM 30.2 °F 28.4 °F 93% 30.32 in 10.0 mi Calm Calm - N/A   Clear
6:35 AM 32.0 °F 28.4 °F 87% 30.32 in 10.0 mi Calm Calm - N/A   Clear
6:55 AM 32.0 °F 28.4 °F 87% 30.32 in 10.0 mi Calm Calm - N/A   Clear
7:35 AM 37.4 °F 33.8 °F 87% 30.32 in 10.0 mi Calm Calm - N/A   Clear
7:55 AM 39.2 °F 35.6 °F 87% 30.33 in 9.0 mi Calm Calm - N/A   Clear
8:15 AM 44.6 °F 37.4 °F 76% 30.33 in 10.0 mi Calm Calm - N/A   Clear
8:35 AM 44.6 °F 37.4 °F 76% 30.33 in 10.0 mi Calm Calm - N/A   Clear
8:55 AM 48.2 °F 37.4 °F 66% 30.34 in 10.0 mi Calm Calm - N/A   Clear
9:15 AM 51.8 °F 37.4 °F 58% 30.35 in 10.0 mi Calm Calm - N/A   Clear
9:35 AM 53.6 °F 37.4 °F 54% 30.35 in 10.0 mi Calm Calm - N/A   Clear
9:55 AM 53.6 °F 35.6 °F 51% 30.34 in 10.0 mi Calm Calm - N/A   Clear
10:15 AM 55.4 °F 35.6 °F 47% 30.33 in 10.0 mi Calm Calm - N/A   Clear
10:35 AM 57.2 °F 35.6 °F 44% 30.33 in 10.0 mi Calm Calm - N/A   Clear
10:55 AM 57.2 °F 35.6 °F 44% 30.32 in 10.0 mi Calm Calm - N/A   Clear
11:15 AM 60.8 °F 37.4 °F 42% 30.31 in 10.0 mi East 3.5 mph - N/A   Clear
11:35 AM 59.0 °F 35.6 °F 42% 30.29 in 10.0 mi SSE 3.5 mph - N/A   Clear
11:55 AM 60.8 °F 37.4 °F 42% 30.28 in 10.0 mi Calm Calm - N/A   Clear
12:15 PM 60.8 °F 37.4 °F 42% 30.27 in 10.0 mi Calm Calm - N/A   Clear
12:35 PM 62.6 °F 37.4 °F 39% 30.27 in 10.0 mi Calm Calm - N/A   Clear
1:15 PM 64.4 °F 39.2 °F 40% 30.26 in 10.0 mi ENE 3.5 mph - N/A   Clear
1:35 PM 66.2 °F 41.0 °F 40% 30.24 in 10.0 mi Calm Calm - N/A   Clear
1:55 PM 66.2 °F 41.0 °F 40% 30.23 in 10.0 mi South 3.5 mph - N/A   Clear
2:15 PM 66.2 °F 39.2 °F 37% 30.23 in 10.0 mi South 4.6 mph - N/A   Clear
2:35 PM 66.2 °F 41.0 °F 40% 30.22 in 10.0 mi Calm Calm - N/A   Clear
2:55 PM 66.2 °F 41.0 °F 40% 30.22 in 10.0 mi Calm Calm - N/A   Clear
3:15 PM 66.2 °F 42.8 °F 43% 30.22 in 10.0 mi Calm Calm - N/A   Clear
3:35 PM 66.2 °F 41.0 °F 40% 30.22 in 10.0 mi Calm Calm - N/A   Clear
3:55 PM 64.4 °F 42.8 °F 45% 30.21 in 10.0 mi Calm Calm - N/A   Clear
4:15 PM 57.2 °F 42.8 °F 59% 30.20 in 10.0 mi Calm Calm - N/A   Clear
4:35 PM 55.4 °F 41.0 °F 58% 30.19 in 10.0 mi Calm Calm - N/A   Clear
5:15 PM 53.6 °F 42.8 °F 67% 30.20 in 10.0 mi Calm Calm - N/A   Clear
5:35 PM 51.8 °F 42.8 °F 71% 30.20 in 10.0 mi Calm Calm - N/A   Clear
5:55 PM 48.2 °F 39.2 °F 71% 30.21 in 10.0 mi Calm Calm - N/A   Clear
6:15 PM 46.4 °F 39.2 °F 76% 30.21 in 10.0 mi Calm Calm - N/A   Clear
6:35 PM 44.6 °F 39.2 °F 81% 30.21 in 10.0 mi Calm Calm - N/A   Clear
6:55 PM 46.4 °F 39.2 °F 76% 30.21 in 10.0 mi Calm Calm - N/A   Clear
7:15 PM 44.6 °F 39.2 °F 81% 30.21 in 10.0 mi Calm Calm - N/A   Clear
7:35 PM 44.6 °F 39.2 °F 81% 30.21 in 10.0 mi Calm Calm - N/A   Clear
7:55 PM 44.6 °F 39.2 °F 81% 30.22 in 10.0 mi Calm Calm - N/A   Clear
8:15 PM 42.8 °F 37.4 °F 81% 30.22 in 10.0 mi Calm Calm - N/A   Clear
8:35 PM 41.0 °F 37.4 °F 87% 30.22 in 10.0 mi Calm Calm - N/A   Clear
9:15 PM 41.0 °F 37.4 °F 87% 30.22 in 10.0 mi Calm Calm - N/A   Clear
9:35 PM 41.0 °F 37.4 °F 87% 30.21 in 10.0 mi Calm Calm - N/A   Clear
9:55 PM 41.0 °F 37.4 °F 87% 30.21 in 10.0 mi Calm Calm - N/A   Scattered Clouds
10:15 PM 41.0 °F 37.4 °F 87% 30.21 in 10.0 mi Calm Calm - N/A   Mostly Cloudy
10:35 PM 42.8 °F 39.2 °F 87% 30.21 in 10.0 mi Calm Calm - N/A   Overcast
10:55 PM 42.8 °F 37.4 °F 81% 30.20 in 10.0 mi Calm Calm - N/A   Mostly Cloudy
11:15 PM 41.0 °F 37.4 °F 87% 30.20 in 10.0 mi Calm Calm - N/A   Mostly Cloudy
11:35 PM 41.0 °F 37.4 °F 87% 30.20 in 10.0 mi Calm Calm - N/A   Mostly Cloudy
11:55 PM 41.0 °F 37.4 °F 87% 30.19 in 10.0 mi Calm Calm - N/A   Partly Cloudy